Dickinson, ND

10:09 AM MDT on July 26, 2017 (GMT -0600)
Dickinson Municipal

Weather History for KDIK - January, 2013

Change the Weather History Date:

Wednesday, January 9, 2013

  Actual Average Record
Temperature  
Mean Temperature 28 °F 16 °F  
Max Temperature 38 °F 26 °F 54 °F (2012)
Min Temperature 18 °F 6 °F -28 °F (1930)
Degree Days  
Heating Degree Days 37 49  
Month to date heating degree days 385 441  
Since 1 July heating degree days 3776 3978  
Cooling Degree Days 0 0  
Month to date cooling degree days 0 0  
Year to date cooling degree days 0 0  
Moisture  
Dew Point 21 °F    
Average Humidity 72    
Maximum Humidity 80    
Minimum Humidity 63    
Precipitation  
Precipitation 0.00 in 0.01 in 0.40 in (1893)
Month to date precipitation 0.01 0.10  
Year to date precipitation 0.01 0.10  
Sea Level Pressure  
Sea Level Pressure 30.00 in    
Wind  
Wind Speed 13 mph (SSW)    
Max Wind Speed 21 mph    
Max Gust Speed 24 mph    
Visibility 10 miles    
Events      
T = Trace of Precipitation, MM = Missing Value Source: NWS Daily Summary

Daily Weather History Graph

Daily Weather History Graph

Search for Another Location

Airport or City:

Trip Planner

Search our weather history database for the weather conditions in past years. The results will help you decide how hot, cold, wet, or windy it might be!

Date:

Astronomy

Jan. 09, 2013 Rise Set
Actual Time 7:34 AM MST 4:22 PM MST
Civil Twilight 7:00 AM MST 4:57 PM MST
Nautical Twilight 6:22 AM MST 5:35 PM MST
Astronomical Twilight 5:45 AM MST 6:11 PM MST
Moon 5:16 AM MST (1/9) 2:26 PM MST (1/9)
Length of Visible Light 9h 57m
Length of Day
8h 47m
Waning Crescent, 6% of the Moon is Illuminated
Jan 9
Waning Crescent
Jan 11
New
Jan 18
First Quarter
Jan 26
Full
Feb 3
Last Quarter

Hourly Weather History & Observations

Time (MST) Temp. Windchill Dew Point Humidity Pressure Visibility Wind Dir Wind Speed Gust Speed Precip Events Conditions
12:56 AM 21.0 °F 8.1 °F 14.0 °F 74% 30.06 in 10.0 mi West 13.8 mph - N/A   Clear
1:56 AM 18.0 °F 6.1 °F 12.0 °F 78% 30.09 in 10.0 mi WSW 10.4 mph - N/A   Clear
2:56 AM 19.0 °F 7.5 °F 12.0 °F 74% 30.11 in 10.0 mi WSW 10.4 mph - N/A   Clear
3:56 AM 19.0 °F 7.5 °F 12.0 °F 74% 30.12 in 10.0 mi SSW 10.4 mph - N/A   Mostly Cloudy
4:56 AM 24.1 °F 17.0 °F 16.0 °F 71% 30.09 in 10.0 mi SSW 5.8 mph - N/A   Overcast
5:56 AM 21.0 °F 9.9 °F 14.0 °F 74% 30.08 in 10.0 mi South 10.4 mph - N/A   Scattered Clouds
6:56 AM 19.0 °F 7.5 °F 12.0 °F 74% 30.08 in 10.0 mi South 10.4 mph - N/A   Clear
7:56 AM 19.9 °F 6.2 °F 14.0 °F 78% 30.07 in 10.0 mi South 15.0 mph - N/A   Clear
8:56 AM 26.1 °F 13.6 °F 16.0 °F 66% 30.05 in 10.0 mi South 16.1 mph - N/A   Clear
9:56 AM 30.0 °F 17.9 °F 19.0 °F 64% 30.05 in 10.0 mi South 18.4 mph - N/A   Clear
10:56 AM 30.9 °F 21.2 °F 21.9 °F 69% 30.04 in 10.0 mi South 12.7 mph - N/A   Clear
11:56 AM 35.1 °F 25.5 °F 25.0 °F 67% 30.01 in 10.0 mi South 15.0 mph - N/A   Clear
12:56 PM 36.0 °F 26.0 °F 27.0 °F 70% 30.01 in 10.0 mi South 17.3 mph - N/A   Clear
1:56 PM 37.0 °F 27.7 °F 28.0 °F 70% 30.00 in 10.0 mi South 16.1 mph - N/A   Clear
2:56 PM 37.0 °F 29.8 °F 28.9 °F 73% 30.00 in 10.0 mi South 10.4 mph - N/A   Clear
3:56 PM 36.0 °F 28.5 °F 28.9 °F 76% 29.99 in 10.0 mi South 10.4 mph - N/A   Clear
4:56 PM 37.0 °F 27.4 °F 28.0 °F 70% 29.96 in 10.0 mi South 17.3 mph - N/A   Clear
5:56 PM 36.0 °F 28.0 °F 28.0 °F 73% 29.94 in 10.0 mi South 11.5 mph - N/A   Clear
6:56 PM 34.0 °F 25.5 °F 27.0 °F 75% 29.93 in 10.0 mi SSW 11.5 mph - N/A   Clear
7:56 PM 30.9 °F 22.8 °F 24.1 °F 76% 29.89 in 10.0 mi SSW 9.2 mph - N/A   Clear
9:56 PM 32.0 °F 24.2 °F 26.1 °F 79% 29.81 in 10.0 mi South 9.2 mph - N/A   Clear
10:56 PM 32.0 °F 23.6 °F 26.1 °F 79% 29.79 in 10.0 mi SSE 10.4 mph - N/A   Clear
11:56 PM 33.1 °F 23.4 °F 26.1 °F 75% 29.76 in 10.0 mi South 13.8 mph - N/A   Clear